This is the latest recevied weather packets stored in our database for station/object KC9Q. If no packets are shown the sender has not sent any weather packets the latest 10 day(s).
| Time | Temp. | Humidity | Pressure | Rain* | Wind** | Luminosity | Snow |
|---|---|---|---|---|---|---|---|
| 1777603590 | 14.44° C | 68% | 1015.6 hPa | 0 mm | - | 0 W/m² | - |
| 1777603285 | 14.44° C | 67% | 1015.4 hPa | 0 mm | - | 0 W/m² | - |
| 1777602981 | 14.44° C | 70% | 1015.4 hPa | 0 mm | - | 0 W/m² | - |
| 1777602677 | 14.44° C | 72% | 1015.3 hPa | 0 mm | - | 0 W/m² | - |
| 1777602377 | 14.44° C | 73% | 1015.5 hPa | 0 mm | - | 0 W/m² | - |
| 1777602073 | 14.44° C | 63% | 1015.2 hPa | 0 mm | - | 0 W/m² | - |
| 1777601768 | 14.44° C | 67% | 1015.2 hPa | 0 mm | - | 0 W/m² | - |
| 1777601464 | 15° C | 66% | 1015.1 hPa | 0 mm | - | 0 W/m² | - |
| 1777601160 | 15° C | 65% | 1015.2 hPa | 0 mm | - | 0 W/m² | - |
| 1777600858 | 15° C | 60% | 1014.9 hPa | 0 mm | - | 0 W/m² | - |
| 1777600553 | 15° C | 57% | 1014.9 hPa | 0 mm | - | 0 W/m² | - |
| 1777600249 | 15° C | 54% | 1015 hPa | 0 mm | - | 0 W/m² | - |
| 1777599944 | 15° C | 54% | 1014.8 hPa | 0 mm | - | 0 W/m² | - |
| 1777599642 | 15° C | 53% | 1014.7 hPa | 0 mm | - | 0 W/m² | - |
| 1777599338 | 15° C | 54% | 1015 hPa | 0 mm | - | 0 W/m² | - |
| 1777599035 | 15° C | 54% | 1014.9 hPa | 0 mm | - | 0 W/m² | - |
| 1777598732 | 15° C | 53% | 1015 hPa | 0 mm | - | 0 W/m² | - |
| 1777598428 | 15° C | 52% | 1014.9 hPa | 0 mm | - | 0 W/m² | - |
| 1777598127 | 15.56° C | 51% | 1014.9 hPa | 0 mm | - | 0 W/m² | - |
| 1777597827 | 15.56° C | 51% | 1014.8 hPa | 0 mm | - | 0 W/m² | - |
| 1777597521 | 15.56° C | 50% | 1014.7 hPa | 0 mm | - | 0 W/m² | - |
| 1777597217 | 15.56° C | 49% | 1014.7 hPa | 0 mm | - | 0 W/m² | - |
| 1777596913 | 15.56° C | 48% | 1014.7 hPa | 0 mm | - | 1 W/m² | - |
| 1777596610 | 15.56° C | 48% | 1014.5 hPa | 0 mm | - | 1 W/m² | - |
| 1777596306 | 15.56° C | 46% | 1014.5 hPa | 0 mm | - | 3 W/m² | - |
* Rain latest hour (hover to see other rain measurements)
** Current wind speed in m/s (hover to see current wind gust speed)